Location: Fredericksburg
(30.2750°N, 98.8720°W)
Time: 14:25:24
(UTC-05:00)

ISS - All Passes

Search period start: 31 July 2015 00:00
Search period end: 10 August 2015 00:00
Orbit: 401 x 403 km, 51.6° (Epoch: 31 July)

Date Brightness Start Highest point End Pass type
(mag) Time Alt. Az. Time Alt. Az. Time Alt. Az.
31 Jul - 05:22:03 10° NNW 05:24:57 30° NE 05:27:53 10° ESE visible
31 Jul - 06:59:09 10° W 07:01:14 16° SW 07:03:13 10° SSW daylight
31 Jul - 20:22:13 10° SSE 20:23:55 14° SE 20:25:44 10° E daylight
31 Jul - 21:57:10 10° WSW 22:00:09 33° NW 22:03:08 10° NNE visible
01 Aug - 04:29:46 10° N 04:31:49 16° NE 04:33:55 10° ENE visible
01 Aug - 06:05:20 10° WNW 06:08:22 35° SW 06:11:21 10° SSE visible
01 Aug - 21:03:53 10° SW 21:07:07 79° NW 21:10:22 10° NE visible
02 Aug - 05:12:10 10° NW 05:15:26 89° NNE 05:18:41 10° SE visible
02 Aug - 20:11:08 10° SSW 20:14:10 40° SE 20:17:15 10° ENE daylight
02 Aug - 21:48:49 10° WNW 21:50:46 15° NW 21:52:38 10° N visible
03 Aug - 04:19:22 10° NNW 04:22:25 36° NE 04:25:27 10° ESE night (unlit)
03 Aug - 05:57:04 10° W 05:58:36 12° SW 06:00:00 10° SSW visible
03 Aug - 19:19:06 10° S 19:21:17 17° SE 19:23:33 10° E daylight
03 Aug - 20:54:44 10° WSW 20:57:35 27° NW 21:00:24 10° NNE visible
04 Aug - 03:26:55 10° N 03:29:15 18° NE 03:31:39 10° E night (unlit)
04 Aug - 05:02:52 10° WNW 05:05:43 28° SW 05:08:32 10° S night (unlit)
04 Aug - 20:01:17 10° SW 20:04:29 61° NW 20:07:43 10° NE daylight
05 Aug - 02:35:29 10° NNE 02:35:59 10° NNE 02:36:35 10° NE night (unlit)
05 Aug - 04:09:33 10° NW 04:12:47 71° SW 04:16:00 10° SE night (unlit)
05 Aug - 19:08:21 10° SSW 19:11:30 51° SE 19:14:40 10° NE daylight
05 Aug - 20:46:39 10° WNW 20:48:11 12° NNW 20:49:37 10° N visible
06 Aug - 03:16:37 10° NNW 03:19:45 45° NE 03:22:54 10° ESE night (unlit)
06 Aug - 18:16:03 10° S 18:18:34 21° SE 18:21:09 10° ENE daylight
06 Aug - 19:52:16 10° W 19:54:55 23° NW 19:57:34 10° NNE daylight
07 Aug - 02:24:02 10° NNW 02:26:37 22° NE 02:29:14 10° E night (unlit)
07 Aug - 04:00:21 10° WNW 04:03:00 22° SW 04:05:35 10° S night (unlit)
07 Aug - 18:58:38 10° WSW 19:01:47 48° NW 19:04:56 10° NNE daylight
08 Aug - 01:32:02 10° N 01:33:20 12° NNE 01:34:45 10° ENE night (unlit)
08 Aug - 03:06:51 10° NW 03:10:03 55° SW 03:13:13 10° SSE night (unlit)
08 Aug - 18:05:32 10° SW 18:08:44 67° SE 18:11:58 10° NE daylight
08 Aug - 19:44:39 10° NW 19:45:30 11° NNW 19:46:16 10° NNW daylight
09 Aug - 02:13:49 10° NW 02:17:01 58° NE 02:20:13 10° SE night (unlit)
09 Aug - 17:13:00 10° S 17:15:46 26° SE 17:18:34 10° ENE daylight
09 Aug - 18:49:45 10° W 18:52:12 19° NW 18:54:37 10° N daylight
